EHI
0 0 0 0 0 0 0 0 0 0 2 6 8 10 16 23 30 42 57 70 78 82 79 74 70 66 63 63 64 63 59 54 50 47 41 31 23 19 17 15 12 11 9 7
0 0 0 0 0 0 0 0 0 1 3 7 9 11 16 24 32 42 55 66 75 80 80 77 74 71 68 67 66 65 63 59 55 49 39 30 23 20 19 17 13 11 8 5
0 0 0 0 0 0 0 1 2 4 7 12 15 17 22 29 36 43 51 59 68 76 80 81 78 73 70 68 67 68 68 66 61 52 40 31 27 25 22 19 15 12 7 3
0 0 0 0 0 0 1 4 8 11 15 19 23 24 25 32 40 47 53 59 65 70 75 79 78 72 67 66 67 69 70 69 62 53 42 36 34 31 26 22 19 15 10 6
0 0 0 0 0 1 3 8 15 21 23 24 23 21 25 35 42 48 57 64 66 66 70 76 77 73 69 68 69 70 69 66 59 51 43 39 36 32 28 24 22 19 13 10
0 0 1 2 3 3 5 13 23 28 28 26 23 23 31 40 43 47 56 63 65 66 71 78 79 76 73 70 68 67 64 59 53 47 42 38 34 30 27 25 22 19 16 14
0 0 3 8 9 9 16 27 35 35 33 32 30 33 40 45 46 49 53 58 62 66 73 78 79 76 73 69 65 62 58 52 46 43 39 36 32 29 26 24 22 20 18 16
2 3 9 17 20 23 34 46 47 43 41 40 38 40 45 48 50 52 54 56 59 63 68 73 73 70 68 66 64 61 57 51 45 41 37 34 32 29 24 22 22 21 18 15
7 10 17 25 30 34 43 51 50 47 46 44 42 43 48 52 53 53 53 53 54 55 58 60 62 60 59 59 60 59 57 53 46 39 35 32 30 25 21 20 20 19 16 13
14 16 21 25 29 33 38 43 46 46 45 44 43 45 49 52 53 51 50 48 47 46 46 46 47 48 49 49 50 51 52 48 41 35 31 29 25 21 17 16 16 16 15 14
15 17 19 20 21 24 27 32 36 37 37 37 38 40 42 43 45 44 43 42 40 38 37 36 37 38 39 39 41 44 44 39 33 30 28 26 21 17 13 11 10 10 11 11
12 14 16 16 16 15 16 19 23 25 25 26 28 29 30 31 32 32 33 34 33 32 32 33 33 33 33 34 35 37 35 29 26 26 26 24 20 15 10 6 3 3 4 4
8 10 12 12 10 9 9 10 13 17 17 17 19 21 22 22 21 21 21 22 23 24 27 29 29 28 28 28 29 28 24 22 21 22 22 21 18 13 8 3 0 0 0 0
4 5 7 6 4 3 4 5 8 12 12 12 13 17 19 18 17 16 14 13 14 17 19 21 22 21 20 19 20 19 16 14 16 17 17 15 12 10 6 3 1 0 0 0
1 1 2 2 1 0 1 3 5 7 8 7 9 13 15 15 15 15 12 10 10 12 13 14 13 12 11 9 10 11 11 9 10 11 10 8 6 4 4 3 1 0 0 0
0 0 0 0 0 0 0 1 2 2 3 3 5 8 10 11 11 13 13 10 10 10 9 8 6 5 4 4 4 6 6 5 5 5 4 3 1 1 2 2 1 1 1 0
0 0 0 0 0 0 0 0 0 0 0 1 3 4 6 8 9 11 11 9 8 7 6 3 2 1 1 2 2 2 2 1 1 1 1 1 0 0 1 1 1 1 1 1
0 0 0 0 0 0 0 0 0 0 1 2 2 2 3 5 7 9 8 6 5 5 4 2 1 0 0 1 1 1 0 0 0 0 0 0 0 0 0 0 0 1 1 0
0 0 0 0 0 0 0 0 0 0 1 1 1 1 2 2 3 5 5 4 3 2 3 2 1 0 0 0 0 0 0 0 0 0 0 0 0 0 0 0 0 0 0 0
0 0 0 0 1 1 1 0 0 0 0 1 1 1 1 1 1 1 1 2 1 2 3 3 1 1 0 0 0 0 0 0 0 0 0 0 0 0 0 0 0 0 0 0
0 0 0 0 1 1 1 0 0 0 0 0 1 1 0 0 0 0 0 1 2 2 3 3 2 1 0 0 0 0 0 0 0 0 0 0 0 0 0 0 0 0 0 0
0 0 0 0 0 0 0 0 0 0 0 0 0 0 0 0 0 0 1 2 2 2 2 3 2 1 0 0 0 0 0 0 0 0 0 0 0 0 0 0 0 0 0 0
0 0 0 0 0 0 0 0 0 0 0 0 0 0 0 0 0 0 1 2 2 1 1 2 1 0 0 0 0 0 0 0 0 0 0 0 0 0 0 0 0 0 0 0
0 0 0 0 0 0 0 0 0 0 0 0 0 0 0 0 0 0 0 1 1 0 0 0 0 0 0 0 0 0 0 0 0 0 0 0 0 0 0 0 0 0 0 0
0 0 0 0 0 0 0 0 0 0 0 0 0 0 0 0 0 0 0 0 0 0 0 0 0 0 0 0 0 0 0 0 0 0 0 0 0 0 0 0 0 0 0 0
0 0 0 0 0 0 0 0 0 0 0 0 0 0 0 0 0 0 0 0 0 0 0 0 0 0 0 0 0 0 0 0 0 0 0 0 0 0 0 0 0 0 0 0
0 0 0 0 0 0 0 0 0 0 0 0 0 0 0 0 0 0 0 0 0 0 0 0 0 0 0 0 0 0 0 0 0 0 0 0 0 0 0 0 0 0 0 0
Wind_Speed
12 9 8 12 13 14 15 14 12 10 9 5 3 3 2 0 3 5 7 8 9 9 9 10 10 9 9 9 9 8 8 8 7 7 6 6 5 5 4 4 4 3 3 2
12 12 11 12 13 13 14 13 12 10 7 2 2 2 2 1 3 5 6 8 8 9 9 10 10 9 9 9 9 8 8 8 7 7 7 6 6 5 5 4 3 3 3 2
13 12 12 16 14 13 13 11 11 11 5 1 2 2 2 1 2 3 5 6 8 8 8 8 9 9 10 9 9 9 9 8 8 8 7 7 7 6 5 4 4 3 3 3
11 11 16 9 5 8 10 8 7 5 2 2 2 1 2 2 1 1 3 4 6 6 7 8 8 9 9 10 10 9 9 8 8 8 7 7 7 6 6 4 4 3 3 3
11 14 14 7 5 6 8 7 4 4 3 2 1 3 3 5 3 1 1 2 3 5 6 7 8 8 9 10 9 9 9 8 8 8 7 7 7 6 5 5 4 4 3 3
11 15 15 7 5 3 6 7 3 2 1 2 3 5 3 5 4 3 1 1 2 3 5 6 7 8 9 9 9 9 8 8 7 7 7 7 7 6 5 5 5 4 4 3
14 13 8 1 2 6 10 3 3 0 1 1 1 4 4 3 4 4 3 2 2 3 4 5 6 7 7 7 7 7 7 7 7 7 7 7 6 6 6 5 5 4 4 4
11 13 7 4 2 3 3 4 2 2 2 2 2 2 3 3 4 4 4 4 3 3 3 4 5 5 5 6 6 6 7 8 8 7 6 6 6 6 5 5 5 5 5 4
3 1 5 3 2 3 2 2 2 2 2 2 2 2 3 3 4 4 4 4 3 4 4 4 4 3 4 4 5 6 7 7 8 7 6 6 7 7 6 5 4 4 4 4
2 2 2 3 3 3 3 3 3 3 3 2 2 2 3 3 3 3 3 3 2 3 3 3 3 3 3 4 5 6 6 7 7 7 6 6 5 5 5 5 4 4 4 4
3 2 2 3 3 4 4 4 4 4 4 3 3 3 2 2 2 2 3 3 2 2 2 3 3 3 3 3 4 5 6 5 6 6 6 5 4 2 2 2 1 2 3 3
3 1 1 1 2 2 2 3 4 4 4 3 3 2 2 3 2 2 2 2 2 2 2 2 2 2 2 2 3 5 5 5 4 4 5 5 5 4 5 3 5 4 3 1
3 3 2 1 1 2 3 3 3 4 3 3 2 2 2 2 2 2 1 2 2 1 1 1 1 1 1 2 3 4 4 4 4 4 5 5 5 5 5 4 4 4 3 3
2 3 3 2 2 3 4 4 4 4 3 2 2 2 2 2 2 2 2 1 1 1 0 1 1 1 1 1 2 3 3 3 3 3 4 4 4 4 4 5 5 4 4 4
4 4 4 4 5 5 5 5 5 3 3 3 2 2 2 2 2 2 2 1 0 0 0 0 0 0 1 1 2 2 2 2 2 2 3 3 3 4 4 5 4 4 4 5
5 5 5 5 5 5 5 6 5 4 3 3 2 2 2 1 1 1 1 1 1 1 1 1 1 1 1 1 2 2 2 2 2 2 3 3 3 4 4 4 4 4 4 4
6 5 5 5 6 5 5 5 5 5 4 3 3 2 1 1 1 1 1 1 1 1 2 1 0 0 1 1 1 1 1 2 4 3 3 3 3 3 3 3 3 4 3 3
5 5 5 6 6 6 5 5 5 5 5 4 4 3 3 2 2 1 1 1 1 1 1 1 1 1 1 1 1 1 1 2 2 2 2 2 2 2 2 3 3 3 3 5
5 5 5 5 5 5 5 5 5 4 4 4 4 3 3 3 2 2 1 1 1 1 1 1 1 1 2 1 1 2 2 2 2 2 2 3 3 2 2 3 2 2 2 3
4 4 5 5 5 5 5 4 3 3 3 3 3 3 3 2 2 2 1 1 1 1 0 0 1 1 2 2 2 2 2 2 2 2 2 2 2 2 2 2 2 2 2 2
4 4 5 4 4 4 3 3 3 3 3 2 2 2 2 2 2 1 1 1 1 1 1 1 1 1 1 1 3 2 2 2 2 2 2 2 2 2 2 2 2 1 1 1
5 4 4 4 3 3 2 2 2 2 2 1 1 1 1 1 0 0 0 1 1 1 0 1 1 2 1 1 2 2 2 2 2 2 2 2 2 2 2 2 2 2 2 1
4 4 3 2 1 1 2 1 1 1 2 2 2 1 1 1 1 1 1 2 2 1 1 2 4 3 0 1 2 2 3 2 2 2 2 2 2 2 2 2 2 2 1 1
2 2 1 1 1 2 2 2 3 4 4 4 4 3 2 2 2 3 3 4 4 3 3 5 4 2 1 1 2 3 3 3 3 3 3 3 3 3 2 2 2 2 2 2
1 1 2 2 2 2 2 3 4 4 4 3 5 4 3 3 3 3 4 5 5 4 5 6 4 3 2 3 4 5 4 4 4 3 4 3 3 3 3 3 2 2 2 2
2 2 2 3 2 2 2 3 3 3 4 4 4 4 4 4 5 4 4 6 7 6 5 5 5 4 5 5 6 6 5 5 5 5 5 4 4 4 4 4 5 4 3 3
3 3 3 3 3 3 3 3 4 4 4 4 4 4 5 4 4 4 5 5 5 5 5 5 5 5 5 6 6 6 6 6 6 6 5 5 5 5 5 6 5 4 4 4
Wind_Direction
253 258 241 229 221 214 225 243 249 241 243 255 311 330 338 207 172 173 171 175 177 178 174 174 172 172 173 172 171 174 175 174 173 170 168 168 168 168 165 169 171 166 170 171
237 238 236 241 231 222 227 235 244 244 242 271 329 338 330 226 185 187 185 183 182 180 175 176 176 176 173 173 171 173 176 174 167 166 166 165 164 162 161 163 160 162 170 171
234 226 231 234 228 225 225 229 236 237 240 282 300 343 345 320 221 210 201 193 189 185 182 178 178 178 176 172 171 174 174 170 168 170 169 169 166 162 165 167 161 159 155 147
237 220 232 233 228 231 228 228 235 244 253 286 320 16 41 7 321 238 210 201 192 188 181 177 176 176 175 171 171 172 171 168 166 170 169 168 167 164 164 165 161 158 153 143
233 226 227 203 193 210 215 214 216 224 230 254 261 204 114 45 14 331 239 207 191 193 181 172 171 171 171 172 169 170 170 169 168 168 166 168 167 163 163 165 163 157 147 145
231 236 232 204 159 207 226 207 175 219 246 281 255 245 72 29 16 21 26 121 172 178 166 161 164 166 171 172 170 174 172 169 165 168 171 173 169 167 165 168 162 158 146 149
230 234 233 69 139 198 220 177 100 79 333 308 11 1 27 24 32 38 51 70 110 142 150 152 157 164 172 169 172 170 164 161 162 168 173 170 166 167 167 170 164 162 149 145
229 233 216 50 169 221 35 51 65 48 32 33 49 35 45 45 40 43 56 66 87 110 117 129 146 163 169 167 164 164 162 161 160 165 169 162 162 163 167 169 165 163 160 163
273 288 60 44 38 38 36 44 33 27 34 44 41 40 48 50 47 48 53 61 77 101 111 115 131 158 165 156 160 166 164 164 162 162 162 162 165 165 167 173 181 176 178 179
210 143 88 66 70 62 55 42 23 24 22 31 42 41 41 37 40 42 45 48 65 88 104 114 125 138 144 150 164 166 167 165 161 158 158 160 169 173 173 177 183 184 184 181
218 183 159 116 72 54 47 39 36 32 31 27 33 43 39 30 26 31 34 23 38 70 92 102 113 114 124 150 165 165 162 159 158 158 156 157 154 137 171 159 169 190 181 178
253 212 246 128 58 34 31 31 26 21 23 25 25 27 22 15 8 17 26 34 47 58 74 87 102 108 123 150 166 171 166 163 161 159 160 163 154 139 66 71 88 85 61 71
307 308 302 288 319 345 347 353 357 352 347 348 9 10 9 5 352 3 21 33 44 43 60 88 104 101 114 158 170 176 174 166 168 164 169 174 170 166 156 122 95 96 108 109
296 283 267 277 302 324 327 326 324 322 324 329 340 351 355 357 354 359 6 16 44 78 100 127 132 122 121 151 165 177 181 167 178 173 177 179 176 173 172 171 165 163 161 158
284 271 265 280 290 295 298 296 289 292 306 310 317 328 330 338 341 353 357 345 7 175 117 86 69 100 118 153 158 164 186 181 176 175 175 171 171 173 177 180 178 170 163 156
288 274 265 269 273 272 275 280 285 290 294 300 304 315 324 327 323 327 339 339 329 337 2 32 23 35 107 155 171 171 169 142 180 183 176 175 177 181 183 185 182 182 183 171
281 273 269 267 270 270 274 284 291 290 284 285 293 291 280 260 262 285 320 345 2 357 344 335 20 94 150 178 198 194 181 158 171 190 192 189 187 187 187 189 189 186 179 160
287 288 285 281 280 277 275 274 277 281 280 284 280 270 267 264 277 306 335 349 357 350 341 337 26 101 129 159 207 234 195 189 193 186 176 177 182 187 183 179 181 184 167 156
291 294 290 282 280 279 277 272 271 277 283 277 268 266 273 276 279 289 298 276 271 275 310 14 98 152 155 161 203 202 193 178 177 182 172 163 184 184 179 174 172 178 177 168
307 305 300 295 288 280 277 279 279 278 283 278 267 261 267 277 280 283 285 280 299 341 35 67 181 179 172 179 229 197 175 171 168 169 172 170 165 170 161 152 151 159 171 173
310 312 308 306 305 297 288 278 273 278 285 279 270 272 281 286 283 275 259 274 38 45 82 148 209 181 168 158 214 180 164 163 165 167 164 160 155 150 135 130 136 136 138 141
315 315 311 314 316 319 316 295 281 284 295 326 326 298 288 290 332 23 48 29 69 36 251 151 123 73 89 193 180 163 154 152 152 146 142 141 141 137 127 127 129 126 123 118
303 307 310 317 328 346 358 6 25 45 56 51 42 59 72 59 52 95 92 60 75 66 52 73 74 79 276 213 128 129 126 127 124 118 114 110 109 107 108 116 115 116 115 114
308 315 329 357 44 64 57 54 63 69 72 65 61 63 73 87 79 67 74 68 56 64 72 73 75 75 251 114 100 98 96 94 94 96 98 98 97 96 94 95 91 83 76 67
6 34 62 77 81 79 81 87 92 88 86 83 81 76 76 79 85 81 82 84 79 79 86 79 65 52 72 73 78 79 83 81 78 79 81 77 77 81 80 75 72 73 69 61
48 56 66 76 82 87 91 99 107 107 102 92 84 79 81 84 85 88 90 91 86 79 79 82 79 70 67 68 71 73 76 84 87 79 73 72 70 69 67 65 64 60 59 51
86 89 87 85 83 86 96 100 97 93 93 96 96 90 88 89 90 91 92 92 92 88 84 82 80 78 77 76 74 70 68 66 64 64 66 64 63 65 66 64 58 54 52 56